| time (UTC) | temp F | wind direction | speed MPH | gust MPH | rain 1hr in | rain 24hr in | rain mn in | humidity % | barometer mb |
| 20260502213517 | 0 | 71 | 0.0 | 4.0 | 0.00 | 0.00 | 0.00 | ||
| 20260502212516 | 0 | 71 | 0.0 | 5.0 | 0.00 | 0.00 | 0.00 | ||
| 20260502211536 | 0 | 69 | 1.0 | 6.0 | 0.00 | 0.00 | 0.00 | ||
| 20260502210537 | 0 | 15 | 0.0 | 3.0 | 0.00 | 0.00 | 0.00 | ||
| 20260502205515 | 0 | 97 | 0.0 | 7.0 | 0.00 | 0.00 | 0.00 | ||
| 20260502204515 | 0 | 52 | 0.0 | 5.0 | 0.00 | 0.00 | 0.00 | ||
| 20260502203535 | 0 | 45 | 0.0 | 6.0 | 0.00 | 0.00 | 0.00 | ||
| 20260502202516 | 0 | 47 | 0.0 | 6.0 | 0.00 | 0.00 | 0.00 | ||
| 20260502201538 | 0 | 44 | 0.0 | 6.0 | 0.00 | 0.00 | 0.00 | ||
| 20260502200515 | 0 | 47 | 0.0 | 4.0 | 0.00 | 0.00 | 0.00 | ||
| 20260502195516 | 0 | 46 | 1.0 | 5.0 | 0.00 | 0.00 | 0.00 | ||
| 20260502194515 | 0 | 0.0 | 0.0 | 0.00 | 0.00 | 0.00 | |||
| 20260502193517 | 0 | 45 | 0.0 | 2.0 | 0.00 | 0.00 | 0.00 | ||
| 20260502192515 | 0 | 0.0 | 2.0 | 0.00 | 0.00 | 0.00 | |||
| 20260502191517 | 0 | 46 | 0.0 | 5.0 | 0.00 | 0.00 | 0.00 | ||
| 20260502190515 | 0 | 31 | 0.0 | 2.0 | 0.00 | 0.00 | 0.00 | ||
| 20260502185537 | 0 | 31 | 0.0 | 5.0 | 0.00 | 0.00 | 0.00 | ||
| 20260502184515 | 0 | 35 | 0.0 | 7.0 | 0.00 | 0.00 | 0.00 | ||
| 20260502183515 | 0 | 16 | 2.0 | 8.0 | 0.00 | 0.00 | 0.00 | ||
| 20260502182515 | 0 | 30 | 1.0 | 10.0 | 0.00 | 0.00 | 0.00 | ||
| 20260502181515 | 0 | 27 | 3.0 | 8.0 | 0.00 | 0.00 | 0.00 | ||
| 20260502180517 | 0 | 0.0 | 0.0 | 0.00 | 0.00 | 0.00 | |||
| 20260502170515 | 0 | 299 | 1.0 | 6.0 | 0.00 | 0.00 | 0.00 | ||
| 20260502163538 | 0 | 295 | 1.0 | 6.0 | 0.00 | 0.00 | 0.00 | ||
| 20260502162515 | 75 | 293 | 1.0 | 7.0 | 0.00 | 0.00 | 0.00 | 45 | |
| 20260502161515 | 75 | 258 | 2.0 | 10.0 | 0.00 | 0.00 | 0.00 | 45 | |
| 20260502160515 | 76 | 241 | 6.0 | 11.0 | 0.00 | 0.00 | 0.00 | 43 | |
| 20260502151515 | 77 | 270 | 1.0 | 8.0 | 0.00 | 0.00 | 0.00 | 44 | |
| 20260502150515 | 77 | 236 | 3.0 | 11.0 | 0.00 | 0.00 | 0.00 | 43 | |
| 20260502130516 | 73 | 233 | 4.0 | 14.0 | 0.00 | 0.00 | 0.00 | 51 | |
| 20260502123516 | 71 | 280 | 1.0 | 14.0 | 0.00 | 0.00 | 0.00 | 55 | |
| 20260502122518 | 71 | 250 | 6.0 | 12.0 | 0.00 | 0.00 | 0.00 | 54 | |
| 20260502121516 | 71 | 252 | 4.0 | 13.0 | 0.00 | 0.00 | 0.00 | 55 | |
| 20260502120516 | 72 | 255 | 4.0 | 11.0 | 0.00 | 0.00 | 0.00 | 53 | |
| 20260502115516 | 72 | 248 | 4.0 | 14.0 | 0.00 | 0.00 | 0.00 | 52 | |
| 20260502114516 | 73 | 240 | 6.0 | 13.0 | 0.00 | 0.00 | 0.00 | 51 | |
| 20260502113516 | 72 | 231 | 6.0 | 17.0 | 0.00 | 0.00 | 0.00 | 52 | |
| 20260502112518 | 72 | 218 | 6.0 | 16.0 | 0.00 | 0.00 | 0.00 | 52 | |
| 20260502111538 | 71 | 247 | 5.0 | 16.0 | 0.00 | 0.00 | 0.00 | 52 | |
| 20260502110536 | 71 | 273 | 5.0 | 16.0 | 0.00 | 0.00 | 0.00 | 52 | |
| 20260502105536 | 70 | 238 | 6.0 | 14.0 | 0.00 | 0.00 | 0.00 | 51 | |
| 20260502104516 | 70 | 227 | 8.0 | 21.0 | 0.00 | 0.00 | 0.00 | 53 | |
| 20260502103536 | 70 | 215 | 8.0 | 14.0 | 0.00 | 0.00 | 0.00 | 55 | |
| 20260502102538 | 70 | 253 | 3.0 | 13.0 | 0.00 | 0.00 | 0.00 | 55 | |
| 20260502101516 | 69 | 235 | 5.0 | 12.0 | 0.00 | 0.00 | 0.00 | 56 | |
| 20260502100518 | 68 | 229 | 3.0 | 11.0 | 0.00 | 0.00 | 0.00 | 56 | |
| 20260502091516 | 67 | 255 | 3.0 | 12.0 | 0.00 | 0.00 | 0.00 | 56 | |
| 20260502090518 | 67 | 244 | 4.0 | 12.0 | 0.00 | 0.00 | 0.00 | 55 | |
| 20260502071516 | 0 | 211 | 2.0 | 6.0 | 0.00 | 0.00 | 0.00 | ||
| 20260502070516 | 0 | 222 | 0.0 | 3.0 | 0.00 | 0.00 | 0.00 | ||
| 20260502065516 | 0 | 222 | 0.0 | 4.0 | 0.00 | 0.00 | 0.00 | ||
| 20260502064537 | 0 | 222 | 0.0 | 2.0 | 0.00 | 0.00 | 0.00 | ||
| 20260502063515 | 0 | 221 | 1.0 | 8.0 | 0.00 | 0.00 | 0.00 | ||
| 20260502062515 | 0 | 212 | 3.0 | 7.0 | 0.00 | 0.00 | 0.00 | ||
| 20260502061517 | 0 | 222 | 2.0 | 5.0 | 0.00 | 0.00 | 0.00 | ||
| 20260502060515 | 0 | 222 | 0.0 | 4.0 | 0.00 | 0.00 | 0.00 | ||
| 20260502055537 | 0 | 212 | 1.0 | 8.0 | 0.00 | 0.00 | 0.00 | ||
| 20260502054517 | 0 | 200 | 1.0 | 11.0 | 0.00 | 0.00 | 0.00 | ||
| 20260502053515 | 0 | 204 | 2.0 | 5.0 | 0.00 | 0.00 | 0.00 | ||
| 20260502052515 | 0 | 189 | 0.0 | 2.0 | 0.00 | 0.00 | 0.00 | ||
| 20260502051537 | 0 | 189 | 0.0 | 1.0 | 0.00 | 0.00 | 0.00 | ||
| 20260502050517 | 0 | 0.0 | 6.0 | 0.00 | 0.00 | 0.00 | |||
| 20260502045537 | 0 | 143 | 0.0 | 3.0 | 0.00 | 0.00 | 0.00 | ||
| 20260502044515 | 0 | 195 | 0.0 | 3.0 | 0.00 | 0.00 | 0.00 | ||
| 20260502043515 | 0 | 192 | 1.0 | 5.0 | 0.00 | 0.00 | 0.00 | ||
| 20260502042515 | 0 | 145 | 1.0 | 3.0 | 0.00 | 0.00 | 0.00 | ||
| 20260502041515 | 0 | 0.0 | 0.0 | 0.00 | 0.00 | 0.00 | |||
| 20260502040517 | 0 | 0.0 | 0.0 | 0.00 | 0.00 | 0.00 | |||
| 20260502035517 | 0 | 0.0 | 0.0 | 0.00 | 0.00 | 0.00 | |||
| 20260502034515 | 0 | 0.0 | 0.0 | 0.00 | 0.00 | 0.00 | |||
| 20260502033515 | 0 | 0.0 | 0.0 | 0.00 | 0.00 | 0.00 | |||
| 20260502032535 | 0 | 0.0 | 0.0 | 0.00 | 0.00 | 0.00 | |||
| 20260502031515 | 0 | 0.0 | 0.0 | 0.00 | 0.00 | 0.00 | |||
| 20260502030515 | 0 | 0.0 | 0.0 | 0.00 | 0.00 | 0.00 | |||
| 20260502025535 | 0 | 0.0 | 0.0 | 0.00 | 0.00 | 0.00 | |||
| 20260502024515 | 0 | 0.0 | 0.0 | 0.00 | 0.00 | 0.00 | |||
| 20260502023515 | 0 | 0.0 | 1.0 | 0.00 | 0.00 | 0.00 | |||
| 20260502022517 | 0 | 0.0 | 0.0 | 0.00 | 0.00 | 0.00 | |||
| 20260502021515 | 0 | 0.0 | 0.0 | 0.00 | 0.00 | 0.00 | |||
| 20260502020515 | 0 | 0.0 | 0.0 | 0.00 | 0.00 | 0.00 | |||
| 20260502015535 | 0 | 0.0 | 0.0 | 0.00 | 0.00 | 0.00 | |||
| 20260502014517 | 0 | 0.0 | 0.0 | 0.00 | 0.00 | 0.00 | |||
| 20260502013515 | 0 | 0.0 | 0.0 | 0.00 | 0.00 | 0.00 | |||
| 20260502012516 | 0 | 0.0 | 0.0 | 0.00 | 0.00 | 0.00 | |||
| 20260502011535 | 0 | 0.0 | 0.0 | 0.00 | 0.00 | 0.00 | |||
| 20260502010517 | 0 | 0.0 | 0.0 | 0.00 | 0.00 | 0.00 | |||
| 20260502005515 | 0 | 0.0 | 0.0 | 0.00 | 0.00 | 0.00 | |||
| 20260502004535 | 0 | 0.0 | 0.0 | 0.00 | 0.00 | 0.00 | |||
| 20260502003515 | 0 | 0.0 | 0.0 | 0.00 | 0.00 | 0.00 | |||
| 20260502002516 | 0 | 128 | 0.0 | 2.0 | 0.00 | 0.00 | 0.00 | ||
| 20260502001515 | 0 | 0.0 | 0.0 | 0.00 | 0.00 | 0.00 | |||
| 20260502000515 | 0 | 0.0 | 0.0 | 0.00 | 0.00 | 0.00 | |||
| 20260501235515 | 0 | 0.0 | 0.0 | 0.00 | 0.00 | 0.00 | |||
| 20260501234515 | 0 | 0.0 | 0.0 | 0.00 | 0.00 | 0.00 | |||
| 20260501233515 | 0 | 128 | 0.0 | 1.0 | 0.00 | 0.00 | 0.00 | ||
| 20260501232515 | 0 | 0.0 | 0.0 | 0.00 | 0.00 | 0.00 | |||
| 20260501231516 | 0 | 0.0 | 0.0 | 0.00 | 0.00 | 0.00 | |||
| 20260501230517 | 0 | 0.0 | 0.0 | 0.00 | 0.00 | 0.00 | |||
| 20260501225516 | 0 | 0.0 | 0.0 | 0.00 | 0.00 | 0.00 | |||
| 20260501224516 | 0 | 0.0 | 0.0 | 0.00 | 0.00 | 0.00 | |||
| 20260501223515 | 0 | 0.0 | 0.0 | 0.00 | 0.00 | 0.00 | |||
| 20260501222518 | 0 | 0.0 | 0.0 | 0.00 | 0.00 | 0.00 | |||
| 20260501221518 | 0 | 0.0 | 0.0 | 0.00 | 0.00 | 0.00 | |||
| 20260501220516 | 0 | 0.0 | 0.0 | 0.00 | 0.00 | 0.00 | |||
| 20260501215535 | 0 | 0.0 | 0.0 | 0.00 | 0.00 | 0.00 | |||
| 20260501214516 | 0 | 0.0 | 0.0 | 0.00 | 0.00 | 0.00 |